Location: Izdebno
(52.6670°N, 16.2170°E)
Time: 16:06:16
(UTC+01:00)

Vanguard 2 - Pass Details

Date: 03 February 2023
Orbit: 553 x 2927 km, 32.9° (Epoch: 24 March)

Event Time Altitude Azimuth Distance (km) Brightness Sun altitude
Rises 19:48:40 0° 189° (S) 5,228 11.8 -28.0°
Reaches altitude 10° 19:53:49 10° 170° (S) 4,683 11.3 -28.8°
Enters shadow 19:57:00 14° 156° (SSE) 4,567 11.1 -29.3°
Maximum altitude 20:01:01 16° 137° (SE) 4,674 - -29.9°
Drops below altitude 10° 20:09:22 10° 107° (ESE) 5,588 - -31.1°
Sets 20:16:33 0° 90° (E) 6,770 - -32.2°
